This is the latest recevied weather packets stored in our database for station/object KC5TIL. If no packets are shown the sender has not sent any weather packets the latest 10 day(s).
| Time | Temp. | Humidity | Pressure | Rain* | Wind** | Luminosity | Snow |
|---|---|---|---|---|---|---|---|
| 1777647349 | 15° C | 77% | 1018.5 hPa | 0 mm | - | 88 W/m² | - |
| 1777647048 | 15.56° C | 77% | 1018.2 hPa | 0 mm | - | 70 W/m² | - |
| 1777646744 | 15.56° C | 77% | 1018 hPa | 0 mm | - | 95 W/m² | - |
| 1777646439 | 15.56° C | 78% | 1018.2 hPa | 0 mm | - | 101 W/m² | - |
| 1777646135 | 15.56° C | 78% | 1018.1 hPa | 0 mm | - | 130 W/m² | - |
| 1777645833 | 15° C | 77% | 1018.3 hPa | 0 mm | - | 173 W/m² | - |
| 1777645530 | 15° C | 78% | 1018.5 hPa | 0 mm | - | 98 W/m² | - |
| 1777645226 | 15° C | 78% | 1018.7 hPa | 0 mm | - | 59 W/m² | - |
| 1777644921 | 15° C | 79% | 1018.8 hPa | 0 mm | - | 60 W/m² | - |
| 1777644620 | 15° C | 80% | 1019.1 hPa | 0 mm | - | 48 W/m² | - |
| 1777644315 | 15° C | 82% | 1019 hPa | 0 mm | - | 38 W/m² | - |
| 1777644011 | 15° C | 83% | 1018.9 hPa | 0 mm | - | 43 W/m² | - |
| 1777643709 | 15° C | 83% | 1018.9 hPa | 0 mm | - | 43 W/m² | - |
| 1777643406 | 15° C | 83% | 1018.7 hPa | 0 mm | - | 33 W/m² | - |
| 1777643103 | 15° C | 84% | 1018.5 hPa | 0 mm | - | 31 W/m² | - |
| 1777642799 | 15° C | 83% | 1018.6 hPa | 0 mm | - | 30 W/m² | - |
| 1777642496 | 15° C | 85% | 1018 hPa | 0 mm | - | 30 W/m² | - |
| 1777642192 | 15° C | 85% | 1018 hPa | 0 mm | - | 29 W/m² | - |
| 1777641889 | 15° C | 84% | 1017.9 hPa | 0 mm | - | 29 W/m² | - |
| 1777641584 | 15° C | 84% | 1017.9 hPa | 0 mm | - | 39 W/m² | - |
| 1777641284 | 15° C | 83% | 1017.8 hPa | 0 mm | - | 53 W/m² | - |
| 1777640981 | 15° C | 83% | 1018 hPa | 0 mm | - | 42 W/m² | - |
| 1777640678 | 15° C | 84% | 1018.2 hPa | 0 mm | - | 22 W/m² | - |
| 1777640374 | 15° C | 84% | 1018.4 hPa | 0 mm | - | 12 W/m² | - |
| 1777640071 | 15° C | 84% | 1018.6 hPa | 0 mm | - | 12 W/m² | - |
* Rain latest hour (hover to see other rain measurements)
** Current wind speed in m/s (hover to see current wind gust speed)